DG1ROH Weather Reports


time (UTC)temp
F
wind
direction
speed
knots
gust
knots
rain 1hr
in
rain 24hr
in
rain mn
in
humidity
%
barometer
mb
20260507172315 50 177 0.0 0.9 0.00 0.00 0.00 85 1016.0
20260507172113 50 177 0.0 0.9 0.00 0.00 0.00 85 1015.9
20260507171913 50 177 0.0 0.9 0.00 0.00 0.00 85 1015.9
20260507171711 50 177 0.0 0.9 0.00 0.00 0.00 85 1015.9
20260507171509 50 177 0.0 0.9 0.00 0.00 0.00 85 1015.9
20260507171309 51 177 0.0 0.9 0.00 0.00 0.00 85 1015.9
20260507171109 51 177 0.0 0.0 0.00 0.00 0.00 85 1015.9
20260507170910 51 177 0.0 0.9 0.00 0.00 0.00 84 1015.8
20260507170705 51 177 0.0 0.9 0.00 0.00 0.00 84 1015.9
20260507170505 51 177 0.0 0.9 0.00 0.00 0.00 84 1015.8
20260507170304 51 177 0.0 0.9 0.00 0.00 0.00 84 1015.8
20260507170118 50 177 0.0 0.9 0.00 0.00 0.00 84 1015.8
20260507165905 50 177 0.0 0.9 0.00 0.00 0.00 84 1015.8
20260507165506 51 177 0.0 0.9 0.00 0.00 0.00 84 1015.8
20260507165307 51 177 0.0 0.9 0.00 0.00 0.00 84 1015.8
20260507165105 51 177 0.0 0.0 0.00 0.00 0.00 84 1015.7
20260507164905 51 177 0.0 0.0 0.00 0.00 0.00 84 1015.7
20260507164705 51 177 0.0 0.0 0.00 0.00 0.00 84 1015.7
20260507164457 51 177 0.0 0.0 0.00 0.00 0.00 84 1015.7
20260507164257 51 177 0.0 0.0 0.00 0.00 0.00 84 1015.7
20260507164057 51 177 0.0 0.0 0.00 0.00 0.00 84 1015.6
20260507163855 51 177 0.0 0.0 0.00 0.00 0.00 84 1015.7
20260507163653 51 177 0.0 0.0 0.00 0.00 0.00 83 1015.6
20260507163455 51 177 0.0 0.0 0.00 0.00 0.00 83 1015.6
20260507163253 51 177 0.0 0.0 0.00 0.00 0.00 82 1015.7
20260507163051 51 177 0.0 0.0 0.00 0.00 0.00 82 1015.6
20260507162849 51 177 0.0 0.9 0.00 0.00 0.00 81 1015.6
20260507162648 51 177 0.0 0.9 0.00 0.00 0.00 81 1015.5
20260507162449 51 177 0.0 0.9 0.00 0.00 0.00 80 1015.6
20260507162243 51 177 0.0 0.9 0.00 0.00 0.00 80 1015.5
20260507162041 51 177 0.0 0.9 0.00 0.00 0.00 79 1015.6
20260507161839 51 177 0.0 1.7 0.00 0.00 0.00 80 1015.6
20260507161637 52 177 0.0 1.7 0.00 0.00 0.00 80 1015.5
20260507161440 52 177 0.9 1.7 0.00 0.00 0.00 78 1015.5
20260507161238 52 177 0.9 1.7 0.00 0.00 0.00 79 1015.5
20260507161036 52 177 0.9 1.7 0.00 0.00 0.00 79 1015.5
20260507160832 52 177 0.0 1.7 0.00 0.00 0.00 79 1015.5
20260507160631 52 177 0.0 1.7 0.00 0.00 0.00 79 1015.5
20260507160431 52 177 0.0 1.7 0.00 0.00 0.00 78 1015.4
20260507160229 52 177 0.0 2.6 0.00 0.00 0.00 78 1015.5
20260507160025 52 177 0.0 2.6 0.00 0.00 0.00 77 1015.4
20260507155826 52 177 0.0 2.6 0.00 0.00 0.00 76 1015.5
20260507155624 52 177 0.0 2.6 0.00 0.00 0.00 75 1015.4
20260507155423 52 180 0.0 2.6 0.00 0.00 0.00 76 1015.3
20260507155222 52 105 0.9 3.5 0.00 0.00 0.00 77 1015.3
20260507155023 52 105 0.9 3.5 0.00 0.00 0.00 76 1015.3
20260507154822 52 105 0.9 3.5 0.00 0.00 0.00 74 1015.3
20260507154621 52 111 0.9 3.5 0.00 0.00 0.00 75 1015.3
20260507154419 52 119 0.9 3.5 0.00 0.00 0.00 75 1015.4
20260507154217 53 96 0.9 2.6 0.00 0.00 0.00 76 1015.3
20260507154017 53 96 0.9 5.2 0.00 0.00 0.00 76 1015.3
20260507153817 53 98 0.9 5.2 0.00 0.00 0.00 76 1015.2
20260507153617 53 95 0.9 5.2 0.00 0.00 0.00 74 1015.2
20260507153415 53 53 0.9 5.2 0.00 0.00 0.00 73 1015.2
20260507153214 53 72 0.9 5.2 0.00 0.00 0.00 74 1015.2
20260507153009 53 61 1.7 6.1 0.00 0.00 0.00 72 1015.2
20260507152809 53 45 1.7 6.1 0.00 0.00 0.00 72 1015.2
20260507152609 53 41 1.7 6.1 0.00 0.00 0.00 71 1015.1
20260507152409 53 40 1.7 6.1 0.00 0.00 0.00 70 1015.1
20260507152209 53 61 1.7 6.1 0.00 0.00 0.00 70 1015.1
20260507152009 53 65 1.7 4.3 0.00 0.00 0.00 71 1015.1
20260507151809 53 346 1.7 4.3 0.00 0.00 0.00 71 1015.1
20260507151609 53 71 1.7 4.3 0.00 0.00 0.00 70 1015.1
20260507151414 53 342 1.7 4.3 0.00 0.00 0.00 71 1015.0
20260507151210 53 63 1.7 4.3 0.00 0.00 0.00 70 1015.0
20260507151011 53 63 1.7 4.3 0.00 0.00 0.00 71 1015.0
20260507150806 53 52 1.7 3.5 0.00 0.00 0.00 71 1015.0
20260507150605 53 60 1.7 5.2 0.00 0.00 0.00 72 1015.0
20260507150405 53 88 1.7 5.2 0.00 0.00 0.00 71 1015.0
20260507150207 53 32 2.6 6.1 0.00 0.00 0.00 71 1015.0
20260507150005 53 29 2.6 6.1 0.00 0.00 0.00 70 1015.0
20260507145806 53 26 2.6 6.1 0.00 0.00 0.00 70 1014.9
20260507145605 53 72 1.7 6.1 0.00 0.00 0.00 70 1014.9
20260507145404 53 42 1.7 6.1 0.00 0.00 0.00 70 1014.9
20260507145205 53 63 1.7 4.3 0.00 0.00 0.00 71 1014.9
20260507145005 54 44 0.9 4.3 0.00 0.00 0.00 70 1014.9
20260507144806 54 107 0.9 4.3 0.00 0.00 0.00 71 1014.9
20260507144605 54 81 1.7 4.3 0.00 0.00 0.00 72 1014.8
20260507144405 54 49 1.7 4.3 0.00 0.00 0.00 71 1014.9
20260507144205 54 51 1.7 4.3 0.00 0.00 0.00 73 1014.9
20260507144004 53 54 1.7 4.3 0.00 0.00 0.00 72 1014.9
20260507143805 53 22 1.7 5.2 0.00 0.00 0.00 71 1014.8
20260507143605 53 69 1.7 5.2 0.00 0.00 0.00 71 1014.8
20260507143405 53 17 1.7 5.2 0.00 0.00 0.00 71 1014.8
20260507143204 53 59 1.7 7.8 0.00 0.00 0.00 72 1014.8
20260507143005 53 69 2.6 7.8 0.00 0.00 0.00 72 1014.8
20260507142805 53 44 2.6 7.8 0.00 0.00 0.00 70 1014.8
20260507142605 53 58 2.6 7.8 0.00 0.00 0.00 70 1014.7
20260507142404 53 71 2.6 7.8 0.00 0.00 0.00 70 1014.7
20260507142204 53 62 2.6 7.8 0.00 0.00 0.00 70 1014.8
20260507142005 53 30 2.6 7.8 0.00 0.00 0.00 70 1014.7
20260507141804 53 69 1.7 7.0 0.00 0.00 0.00 71 1014.7
20260507141604 53 33 1.7 5.2 0.00 0.00 0.00 73 1014.8
20260507141405 53 5 1.7 5.2 0.00 0.00 0.00 71 1014.8
20260507141205 53 97 1.7 5.2 0.00 0.00 0.00 71 1014.7
20260507141004 53 97 1.7 6.1 0.00 0.00 0.00 72 1014.7
20260507140805 53 57 1.7 7.8 0.00 0.00 0.00 72 1014.6
20260507140605 53 17 2.6 7.8 0.00 0.00 0.00 71 1014.7
20260507140404 53 331 2.6 7.8 0.00 0.00 0.00 71 1014.6
20260507140204 53 36 2.6 7.8 0.00 0.00 0.00 71 1014.6
20260507140005 53 56 2.6 7.8 0.00 0.00 0.00 72 1014.6
20260507135805 53 29 2.6 7.0 0.00 0.00 0.00 73 1014.6
20260507135605 53 61 2.6 7.0 0.00 0.00 0.00 73 1014.6
20260507135404 53 53 2.6 7.0 0.00 0.00 0.00 72 1014.6
20260507135204 53 65 2.6 7.0 0.00 0.00 0.00 71 1014.6
20260507135108 53 76 2.6 7.0 0.00 0.00 0.00 72 1014.6
20260507134605 53 33 1.7 7.0 0.00 0.00 0.00 71 1014.6
20260507134408 53 45 1.7 6.1 0.00 0.00 0.00 73 1014.6
20260507134204 53 55 1.7 7.8 0.00 0.00 0.00 73 1014.6
20260507134005 53 50 1.7 7.8 0.00 0.00 0.00 73 1014.6
20260507133804 53 54 1.7 7.8 0.00 0.00 0.00 73 1014.5
20260507133605 53 36 1.7 7.8 0.00 0.00 0.00 73 1014.6
20260507133405 53 28 1.7 7.8 0.00 0.00 0.00 72 1014.5
20260507133205 53 61 1.7 4.3 0.00 0.00 0.00 74 1014.6
20260507133004 53 72 1.7 6.1 0.00 0.00 0.00 75 1014.6
20260507132805 53 72 1.7 6.1 0.00 0.00 0.00 73 1014.6
20260507132605 53 355 1.7 7.8 0.00 0.00 0.00 73 1014.6
20260507132405 53 14 1.7 7.8 0.00 0.00 0.00 72 1014.6
20260507132207 53 13 1.7 7.8 0.00 0.00 0.00 74 1014.5
20260507132005 53 71 2.6 7.8 0.00 0.00 0.00 74 1014.5
20260507131804 53 9 2.6 8.7 0.00 0.00 0.00 75 1014.5
20260507131604 52 63 2.6 8.7 0.00 0.00 0.00 73 1014.6
20260507131404 52 28 2.6 8.7 0.00 0.00 0.00 75 1014.6
20260507131205 52 84 2.6 8.7 0.00 0.00 0.00 73 1014.5
20260507131004 52 65 2.6 8.7 0.00 0.00 0.00 74 1014.5
20260507130805 52 71 2.6 7.8 0.00 0.00 0.00 74 1014.5
20260507130605 52 86 2.6 7.8 0.00 0.00 0.00 75 1014.5
20260507130405 52 67 2.6 7.8 0.00 0.00 0.00 76 1014.5
20260507130205 52 5 2.6 7.0 0.00 0.00 0.00 76 1014.5
20260507130005 52 50 2.6 8.7 0.00 0.00 0.00 75 1014.4
20260507125805 52 36 2.6 8.7 0.00 0.00 0.00 76 1014.4
20260507125605 52 55 2.6 8.7 0.00 0.00 0.00 76 1014.4
20260507125404 52 351 2.6 8.7 0.00 0.00 0.00 76 1014.4
20260507125204 51 15 1.7 8.7 0.00 0.00 0.00 75 1014.4
20260507125005 52 58 1.7 6.1 0.00 0.00 0.00 76 1014.4
20260507124804 51 76 2.6 6.1 0.00 0.00 0.00 76 1014.4
20260507124604 51 330 2.6 6.1 0.00 0.00 0.00 76 1014.4
20260507124404 51 78 2.6 6.1 0.00 0.00 0.00 77 1014.3
20260507124204 51 13 2.6 6.1 0.00 0.00 0.00 76 1014.4
20260507124005 51 41 2.6 8.7 0.00 0.00 0.00 76 1014.3
20260507123807 51 131 2.6 8.7 0.00 0.00 0.00 75 1014.3
20260507123604 51 69 1.7 8.7 0.00 0.00 0.00 76 1014.4
20260507123405 51 63 2.6 8.7 0.00 0.00 0.00 75 1014.4
20260507123204 51 58 1.7 8.7 0.00 0.00 0.00 76 1014.4
20260507123005 51 56 2.6 7.8 0.00 0.00 0.00 77 1014.3
20260507122805 51 355 2.6 7.8 0.00 0.00 0.00 76 1014.3
20260507122604 51 59 2.6 7.8 0.00 0.00 0.00 76 1014.3
20260507122405 51 18 2.6 7.8 0.00 0.00 0.00 76 1014.3
20260507122205 51 13 2.6 7.8 0.00 0.00 0.00 77 1014.3
20260507122005 51 15 1.7 7.8 0.00 0.00 0.00 76 1014.4
20260507121805 51 318 1.7 7.8 0.00 0.00 0.00 77 1014.3
20260507121607 51 38 1.7 5.2 0.00 0.00 0.00 78 1014.3
20260507121404 51 59 1.7 5.2 0.00 0.00 0.00 78 1014.3
20260507121205 51 40 2.6 7.0 0.00 0.00 0.00 78 1014.2
20260507121004 51 52 3.5 11.3 0.00 0.00 0.00 77 1014.2
20260507120804 51 52 3.5 11.3 0.00 0.00 0.00 78 1014.3
20260507120602 51 42 3.5 11.3 0.00 0.00 0.00 77 1014.2
20260507120403 51 57 3.5 11.3 0.00 0.00 0.00 76 1014.3
20260507120203 51 78 3.5 11.3 0.00 0.00 0.00 76 1014.3
20260507120004 51 39 3.5 10.4 0.00 0.00 0.00 76 1014.3
20260507115802 51 5 3.5 10.4 0.00 0.00 0.00 75 1014.2
20260507115602 52 63 3.5 9.6 0.00 0.00 0.00 76 1014.2
20260507115402 52 11 3.5 9.6 0.00 0.00 0.00 77 1014.2
20260507115201 52 67 3.5 9.6 0.00 0.00 0.00 75 1014.2
20260507115002 52 21 3.5 9.6 0.00 0.00 0.00 74 1014.3
20260507114802 52 67 2.6 10.4 0.00 0.00 0.00 75 1014.1
20260507114601 52 26 2.6 10.4 0.00 0.00 0.00 75 1014.1
20260507114401 52 86 2.6 10.4 0.00 0.00 0.00 74 1014.2
20260507114201 53 355 2.6 10.4 0.00 0.00 0.00 75 1014.2
20260507114001 53 43 2.6 10.4 0.00 0.00 0.00 74 1014.2
20260507113802 53 79 2.6 7.0 0.00 0.00 0.00 76 1014.2
20260507113601 53 87 2.6 7.0 0.00 0.00 0.00 76 1014.1
20260507113402 52 51 2.6 12.2 0.00 0.00 0.00 76 1014.2
20260507113201 52 10 3.5 12.2 0.00 0.00 0.00 76 1014.1
20260507113001 52 94 2.6 12.2 0.00 0.00 0.00 76 1014.1
20260507112800 52 69 3.5 12.2 0.00 0.00 0.00 76 1014.1
20260507112600 52 48 3.5 12.2 0.00 0.00 0.00 76 1014.2
20260507112401 51 94 2.6 10.4 0.00 0.00 0.00 77 1014.2
20260507112201 51 350 3.5 10.4 0.00 0.00 0.00 79 1014.2
20260507112001 51 43 3.5 10.4 0.00 0.00 0.00 77 1014.1
20260507111801 51 46 2.6 10.4 0.00 0.00 0.00 77 1014.1
20260507111559 51 20 2.6 9.6 0.00 0.00 0.00 77 1014.2
20260507111355 51 51 2.6 9.6 0.00 0.00 0.00 76 1014.1
20260507111154 51 67 2.6 9.6 0.00 0.00 0.00 77 1014.2
20260507111006 51 43 2.6 7.8 0.00 0.00 0.00 79 1014.2
20260507110755 50 73 2.6 8.7 0.00 0.00 0.00 77 1014.2
20260507110555 50 66 2.6 8.7 0.00 0.00 0.00 78 1014.2
20260507110354 50 89 2.6 8.7 0.00 0.00 0.00 78 1014.2
20260507110154 50 69 2.6 8.7 0.00 0.00 0.00 79 1014.1
20260507105954 50 342 3.5 8.7 0.00 0.00 0.00 79 1014.1
20260507105752 50 19 3.5 10.4 0.00 0.00 0.00 78 1014.2
20260507105553 50 74 4.3 10.4 0.00 0.00 0.00 79 1014.1
20260507105352 49 90 3.5 10.4 0.00 0.00 0.00 79 1014.1
20260507105152 50 70 3.5 10.4 0.00 0.00 0.00 79 1014.2
20260507104952 50 88 3.5 10.4 0.00 0.00 0.00 77 1014.2
20260507104754 50 67 2.6 10.4 0.00 0.00 0.00 77 1014.1
20260507104552 50 55 1.7 10.4 0.00 0.00 0.00 78 1014.2
20260507104352 51 74 2.6 9.6 0.00 0.00 0.00 77 1014.1
20260507104151 51 77 2.6 9.6 0.00 0.00 0.00 77 1014.0
20260507103946 51 41 2.6 9.6 0.00 0.00 0.00 79 1014.1
20260507103746 51 129 2.6 9.6 0.00 0.00 0.00 80 1014.1
20260507103548 50 63 2.6 9.6 0.00 0.00 0.00 78 1014.1
20260507103346 50 340 2.6 7.0 0.00 0.00 0.00 79 1014.1
20260507103146 50 66 2.6 7.8 0.00 0.00 0.00 80 1014.1
20260507102946 49 0 2.6 7.8 0.00 0.00 0.00 81 1014.1
20260507102746 49 75 2.6 7.8 0.00 0.00 0.00 80 1014.0
20260507102547 49 51 2.6 10.4 0.00 0.00 0.00 80 1014.0
20260507102346 49 48 2.6 10.4 0.00 0.00 0.00 80 1014.0
20260507102146 49 38 2.6 10.4 0.00 0.00 0.00 81 1014.0
20260507101945 49 175 2.6 10.4 0.00 0.00 0.00 80 1013.9
20260507101740 49 40 2.6 10.4 0.00 0.00 0.00 80 1014.0
20260507101541 49 54 2.6 7.8 0.00 0.00 0.00 81 1014.0
20260507101340 49 65 2.6 7.8 0.00 0.00 0.00 81 1013.9
20260507101140 49 45 2.6 7.8 0.00 0.00 0.00 81 1013.9
20260507100941 49 69 2.6 7.8 0.00 0.00 0.00 82 1013.9
20260507100740 48 64 2.6 7.0 0.00 0.00 0.00 81 1013.9
20260507100541 48 54 2.6 7.0 0.00 0.00 0.00 81 1013.9
20260507100341 48 61 2.6 7.0 0.00 0.00 0.00 81 1013.8
20260507100140 48 67 1.7 6.1 0.00 0.00 0.00 81 1013.8
20260507095940 48 67 1.7 7.0 0.00 0.00 0.00 82 1013.8
20260507095740 48 43 2.6 7.0 0.00 0.00 0.00 83 1013.8
20260507095540 48 351 1.7 7.0 0.00 0.00 0.00 83 1013.8
20260507095340 48 69 1.7 7.0 0.00 0.00 0.00 83 1013.7
20260507095139 47 57 2.6 9.6 0.00 0.00 0.00 83 1013.7
20260507094936 47 82 2.6 9.6 0.00 0.00 0.00 82 1013.7
20260507094735 47 34 1.7 9.6 0.00 0.00 0.00 82 1013.8
20260507094532 47 53 1.7 9.6 0.00 0.00 0.00 82 1013.7
20260507094333 47 36 1.7 9.6 0.00 0.00 0.00 82 1013.8
20260507094130 47 76 1.7 7.8 0.00 0.01 0.00 84 1013.8
20260507093934 47 90 1.7 4.3 0.00 0.01 0.00 83 1013.7
20260507093734 47 100 1.7 7.0 0.00 0.01 0.00 83 1013.7
20260507093533 47 61 2.6 7.0 0.00 0.01 0.00 83 1013.6
20260507093329 47 52 1.7 7.0 0.00 0.01 0.00 83 1013.6
20260507093128 47 74 2.6 7.0 0.00 0.01 0.00 83 1013.6
20260507092926 47 350 2.6 7.0 0.00 0.01 0.00 83 1013.7
20260507092726 47 26 2.6 6.1 0.00 0.01 0.00 83 1013.6
20260507092526 47 86 1.7 6.1 0.00 0.02 0.00 84 1013.6
20260507092327 47 111 2.6 8.7 0.00 0.02 0.00 83 1013.5
20260507092127 47 46 3.5 8.7 0.00 0.02 0.00 84 1013.5
20260507091926 46 20 2.6 8.7 0.00 0.02 0.00 84 1013.5
20260507091727 46 36 3.5 8.7 0.00 0.02 0.00 84 1013.5
20260507091525 46 61 2.6 8.7 0.00 0.02 0.00 84 1013.4
20260507091323 46 73 2.6 7.8 0.00 0.03 0.00 84 1013.5
20260507091122 46 32 2.6 8.7 0.00 0.03 0.00 84 1013.5
20260507090923 46 46 3.5 9.6 0.00 0.03 0.00 84 1013.4
20260507090722 46 75 3.5 9.6 0.00 0.04 0.00 84 1013.4
20260507090521 46 57 3.5 9.6 0.00 0.04 0.00 84 1013.4
20260507090320 46 40 4.3 9.6 0.00 0.04 0.00 84 1013.3
20260507090121 46 76 3.5 9.6 0.00 0.05 0.00 85 1013.3
20260507085921 46 42 2.6 8.7 0.00 0.05 0.00 85 1013.2
20260507085720 46 9 3.5 8.7 0.00 0.06 0.00 85 1013.1
20260507085521 46 90 2.6 8.7 0.00 0.06 0.00 85 1013.2
20260507085319 46 76 2.6 7.0 0.00 0.07 0.00 86 1013.1
20260507085118 46 67 2.6 7.0 0.00 0.08 0.00 86 1013.2
20260507084916 46 54 2.6 7.0 0.00 0.09 0.00 86 1013.1
20260507084716 46 33 2.6 7.8 0.00 0.09 0.00 86 1013.0
20260507084516 46 53 2.6 7.8 0.00 0.09 0.00 86 1013.1
20260507084316 46 0 2.6 7.8 0.00 0.10 0.00 86 1013.1
20260507084116 46 65 2.6 7.8 0.00 0.11 0.00 86 1013.0
20260507083914 46 24 2.6 7.8 0.00 0.12 0.00 86 1013.0
20260507083714 46 72 2.6 8.7 0.00 0.13 0.00 87 1013.0
20260507083515 46 58 2.6 8.7 0.00 0.13 0.00 87 1013.0
20260507083314 46 116 2.6 8.7 0.00 0.13 0.00 87 1013.0
20260507083112 45 42 3.5 8.7 0.00 0.14 0.00 87 1012.9
20260507082912 45 34 2.6 8.7 0.00 0.15 0.00 86 1012.8
20260507082708 45 347 2.6 8.7 0.00 0.15 0.00 86 1012.9
20260507082508 45 71 3.5 8.7 0.00 0.16 0.00 87 1012.9
20260507082308 46 63 3.5 8.7 0.00 0.16 0.00 87 1012.9
20260507082108 46 57 2.6 8.7 0.00 0.17 0.00 87 1012.8
20260507081909 46 42 3.5 8.7 0.00 0.17 0.00 87 1012.9
20260507081708 46 26 2.6 8.7 0.00 0.17 0.00 87 1012.8
20260507081508 46 46 2.6 8.7 0.00 0.17 0.00 87 1012.8
20260507081308 46 48 1.7 7.8 0.00 0.18 0.00 87 1012.8
20260507081111 46 11 2.6 7.8 0.00 0.19 0.00 87 1012.8
20260507080910 46 5 2.6 7.8 0.00 0.19 0.00 87 1012.7
20260507080711 46 9 3.5 7.8 0.00 0.20 0.00 86 1012.6
20260507080506 46 48 3.5 7.8 0.00 0.20 0.00 86 1012.6
20260507080308 46 51 3.5 7.8 0.00 0.21 0.00 86 1012.5
20260507080108 46 13 3.5 7.8 0.00 0.22 0.00 86 1012.5
20260507075906 46 5 2.6 7.8 0.00 0.23 0.00 86 1012.5
20260507075707 46 102 2.6 7.8 0.00 0.23 0.00 86 1012.5
20260507075505 46 67 2.6 6.1 0.00 0.24 0.00 86 1012.4
20260507075307 46 46 2.6 7.8 0.00 0.24 0.00 86 1012.5
20260507075105 46 29 2.6 7.8 0.00 0.24 0.00 85 1012.4
20260507074904 46 60 2.6 7.8 0.00 0.25 0.00 85 1012.3
20260507074706 46 351 1.7 7.8 0.00 0.25 0.00 85 1012.4
20260507074504 47 45 1.7 7.8 0.00 0.26 0.00 84 1012.4
20260507074302 47 355 1.7 7.8 0.00 0.26 0.00 84 1012.4
20260507074105 47 19 1.7 7.8 0.00 0.27 0.00 84 1012.4
20260507073902 47 348 2.6 7.8 0.00 0.27 0.00 84 1012.3
20260507073703 47 67 2.6 7.8 0.00 0.28 0.00 84 1012.2
20260507073501 47 69 2.6 7.8 0.00 0.28 0.00 83 1012.2
20260507073301 47 88 2.6 7.8 0.00 0.28 0.00 84 1012.2
20260507073059 47 65 2.6 7.8 0.00 0.29 0.00 84 1012.1
20260507072900 47 69 2.6 7.8 0.00 0.29 0.00 84 1012.1
20260507072700 47 152 2.6 7.8 0.00 0.30 0.00 84 1012.1
20260507072500 47 60 2.6 8.7 0.00 0.31 0.00 85 1012.0
20260507072300 47 133 2.6 8.7 0.00 0.31 0.00 85 1012.0
20260507072100 47 31 2.6 8.7 0.00 0.31 0.00 84 1012.0
20260507071900 47 57 2.6 9.6 0.00 0.32 0.00 84 1012.1
20260507071700 47 68 2.6 9.6 0.00 0.33 0.00 84 1012.1
20260507071500 46 63 3.5 9.6 0.00 0.33 0.00 84 1012.1
20260507071300 46 59 3.5 9.6 0.00 0.34 0.00 85 1012.1
20260507071101 46 57 3.5 9.6 0.00 0.35 0.00 84 1012.1
20260507070858 46 82 3.5 8.7 0.00 0.35 0.00 84 1012.1
20260507070659 46 36 3.5 8.7 0.00 0.35 0.00 84 1012.1
20260507070458 46 60 2.6 8.7 0.00 0.36 0.00 84 1012.1
20260507070256 46 32 2.6 8.7 0.00 0.36 0.00 84 1012.1
20260507070056 46 355 2.6 8.7 0.00 0.36 0.00 84 1012.0
20260507065856 46 74 1.7 8.7 0.00 0.37 0.00 84 1012.0
20260507065656 46 81 1.7 8.7 0.00 0.37 0.00 85 1011.9
20260507065456 46 51 2.6 8.7 0.00 0.37 0.00 84 1011.9
20260507065256 46 132 2.6 8.7 0.00 0.37 0.00 84 1011.9
20260507065054 46 11 1.7 7.8 0.00 0.37 0.00 85 1012.0
20260507064853 46 175 2.6 7.8 0.00 0.37 0.00 85 1011.9
20260507064654 46 51 1.7 7.8 0.00 0.38 0.00 85 1011.9
20260507064454 46 59 1.7 7.8 0.00 0.38 0.00 85 1012.0
20260507064252 46 326 1.7 7.8 0.00 0.38 0.00 85 1011.9
20260507064052 46 39 1.7 6.1 0.00 0.38 0.00 85 1011.9
20260507063852 46 75 1.7 6.1 0.00 0.38 0.00 85 1011.8
20260507063650 46 32 1.7 7.8 0.00 0.38 0.00 85 1011.8
20260507063450 46 26 1.7 7.8 0.00 0.38 0.00 85 1011.9
20260507063248 46 63 2.6 7.8 0.00 0.38 0.00 85 1011.8
20260507063048 46 64 2.6 10.4 0.00 0.38 0.00 85 1011.9
20260507062847 46 67 2.6 10.4 0.00 0.38 0.00 85 1011.9
20260507062649 46 319 2.6 10.4 0.00 0.38 0.00 85 1011.8
20260507062444 46 94 2.6 10.4 0.00 0.38 0.00 85 1011.8
20260507062244 46 86 2.6 10.4 0.00 0.39 0.00 85 1011.8
20260507062043 46 27 2.6 8.7 0.00 0.39 0.00 85 1011.7
20260507061844 46 42 2.6 10.4 0.00 0.39 0.00 85 1011.7
20260507061644 46 76 2.6 10.4 0.00 0.39 0.00 85 1011.7
20260507061444 46 40 2.6 10.4 0.00 0.39 0.00 85 1011.7
20260507061244 46 57 2.6 10.4 0.00 0.39 0.00 85 1011.7
20260507061044 46 64 2.6 10.4 0.00 0.39 0.00 85 1011.7
20260507060848 46 350 2.6 8.7 0.00 0.39 0.00 85 1011.6
20260507060648 46 0 2.6 11.3 0.00 0.39 0.00 85 1011.7
20260507060446 46 58 2.6 11.3 0.00 0.39 0.00 85 1011.7
20260507060244 45 30 3.5 11.3 0.00 0.40 0.00 85 1011.6
20260507060055 45 87 3.5 11.3 0.00 0.40 0.00 85 1011.6
20260507055842 45 58 2.6 11.3 0.00 0.40 0.00 85 1011.6
20260507055641 45 113 2.6 7.8 0.00 0.40 0.00 86 1011.5
20260507055440 45 332 2.6 7.8 0.00 0.40 0.00 85 1011.6
20260507055238 45 32 2.6 7.8 0.00 0.40 0.00 86 1011.6
20260507055037 45 90 2.6 7.8 0.00 0.40 0.00 86 1011.5
20260507054838 45 39 2.6 7.8 0.00 0.40 0.00 86 1011.5
20260507054637 45 49 2.6 7.8 0.00 0.41 0.00 86 1011.4
20260507054434 45 53 2.6 7.8 0.00 0.41 0.00 86 1011.3
20260507054234 45 75 2.6 7.8 0.00 0.41 0.00 86 1011.4
20260507054034 45 95 2.6 7.8 0.00 0.41 0.00 86 1011.3
20260507053834 45 76 2.6 7.8 0.00 0.41 0.00 86 1011.3
20260507053632 45 53 2.6 7.8 0.00 0.41 0.00 86 1011.3
20260507053435 45 41 2.6 8.7 0.00 0.41 0.00 86 1011.2
20260507053232 45 50 2.6 8.7 0.00 0.41 0.00 86 1011.1
20260507053030 45 92 2.6 11.3 0.00 0.41 0.00 86 1011.2
20260507052830 45 23 3.5 11.3 0.00 0.41 0.00 86 1011.3
20260507052629 45 80 3.5 11.3 0.00 0.42 0.00 86 1011.3
20260507052430 45 338 3.5 11.3 0.00 0.42 0.00 86 1011.3
20260507052230 45 80 3.5 11.3 0.00 0.42 0.00 86 1011.3
20260507052030 45 67 2.6 11.3 0.00 0.42 0.00 86 1011.3
20260507051830 45 17 2.6 7.8 0.00 0.42 0.00 86 1011.3
20260507051630 45 54 2.6 8.7 0.00 0.43 0.00 86 1011.2
20260507051429 45 71 3.5 8.7 0.00 0.43 0.00 86 1011.2
20260507051230 45 0 3.5 8.7 0.00 0.43 0.00 86 1011.3
20260507051030 45 61 3.5 8.7 0.00 0.43 0.00 86 1011.3
20260507050829 45 65 2.6 9.6 0.00 0.43 0.00 86 1011.2
20260507050629 45 324 3.5 9.6 0.00 0.43 0.00 86 1011.2
20260507050429 45 59 2.6 9.6 0.00 0.43 0.00 86 1011.2
20260507050229 45 67 2.6 9.6 0.00 0.44 0.00 87 1011.1
20260507050030 45 33 2.6 9.6 0.00 0.44 0.00 86 1011.0
20260507045829 45 83 2.6 8.7 0.00 0.44 0.00 87 1011.0
20260507045629 45 36 2.6 7.8 0.00 0.45 0.00 87 1011.0
20260507045426 45 34 2.6 7.8 0.00 0.45 0.00 87 1010.9
20260507045226 45 74 1.7 7.8 0.00 0.45 0.00 87 1011.0
20260507045024 45 92 2.6 7.8 0.00 0.46 0.00 87 1011.0
20260507044824 45 36 2.6 7.8 0.00 0.46 0.00 87 1011.0
20260507044623 45 55 1.7 7.0 0.00 0.46 0.00 88 1010.9
20260507044424 45 71 1.7 7.0 0.00 0.46 0.00 88 1010.8
20260507044223 45 48 1.7 7.0 0.00 0.46 0.00 88 1010.8
20260507044024 45 59 1.7 7.0 0.00 0.47 0.00 88 1010.9
20260507043824 45 24 1.7 7.8 0.00 0.47 0.00 88 1010.8
20260507043622 45 74 2.6 8.7 0.00 0.48 0.00 88 1010.9
20260507043422 45 28 1.7 8.7 0.00 0.49 0.00 88 1010.9
20260507043220 44 18 1.7 8.7 0.00 0.49 0.00 88 1010.8
20260507043019 44 99 1.7 8.7 0.00 0.50 0.00 88 1010.8
20260507042820 44 39 0.9 8.7 0.00 0.50 0.00 88 1010.8
20260507042620 45 68 0.9 5.2 0.00 0.50 0.00 89 1010.8
20260507042419 45 81 0.9 5.2 0.00 0.50 0.00 89 1010.7
20260507042220 44 81 1.7 5.2 0.00 0.50 0.00 89 1010.7
20260507042016 44 81 1.7 8.7 0.00 0.51 0.00 88 1010.7
20260507041816 44 100 1.7 8.7 0.00 0.51 0.00 88 1010.6
20260507041615 44 75 2.6 8.7 0.00 0.51 0.00 88 1010.6
20260507041416 44 78 2.6 8.7 0.00 0.51 0.00 88 1010.5
20260507041215 44 55 2.6 8.7 0.00 0.52 0.00 89 1010.6
20260507041016 44 336 1.7 7.8 0.00 0.52 0.00 89 1010.5
20260507040816 44 74 2.6 7.8 0.00 0.52 0.00 89 1010.5
20260507040615 44 54 2.6 8.7 0.00 0.53 0.00 89 1010.3
20260507040219 44 60 2.6 8.7 0.00 0.54 0.00 89 1010.4
20260507040016 44 57 1.7 8.7 0.00 0.55 0.00 89 1010.3
20260507035815 44 57 1.7 8.7 0.00 0.56 0.00 89 1010.3
20260507035613 44 62 1.7 5.2 0.00 0.57 0.00 89 1010.3
20260507035414 44 88 1.7 5.2 0.00 0.57 0.00 89 1010.3
20260507035214 44 31 1.7 6.1 0.00 0.57 0.00 89 1010.2
20260507035014 44 66 1.7 6.1 0.00 0.58 0.00 89 1010.2
20260507034813 44 42 0.9 6.1 0.00 0.59 0.00 89 1010.2
20260507034614 44 40 1.7 6.1 0.00 0.59 0.00 88 1010.2
20260507034413 44 76 1.7 6.1 0.00 0.60 0.00 89 1010.2
20260507034214 44 338 1.7 5.2 0.00 0.61 0.00 89 1010.2
20260507034013 44 29 1.7 5.2 0.00 0.61 0.00 88 1010.2
20260507033814 44 31 1.7 5.2 0.00 0.62 0.00 88 1010.2
20260507033614 44 44 2.6 7.0 0.00 0.62 0.00 88 1010.1
20260507033418 44 31 2.6 7.0 0.00 0.63 0.00 88 1010.1
20260507033216 44 67 2.6 7.0 0.00 0.64 0.00 88 1010.1
20260507033014 44 55 2.6 7.0 0.00 0.64 0.00 88 1010.1
20260507032813 44 34 2.6 7.0 0.00 0.65 0.00 88 1010.1
20260507032614 44 35 1.7 7.0 0.00 0.65 0.00 88 1010.0
20260507032413 44 53 1.7 7.0 0.00 0.65 0.00 88 1010.1
20260507032214 44 32 1.7 7.0 0.00 0.66 0.00 88 1010.0
20260507032013 44 17 1.7 7.0 0.00 0.67 0.00 88 1010.2
20260507031814 44 79 1.7 7.0 0.00 0.68 0.00 88 1010.1
20260507031614 44 46 1.7 7.0 0.00 0.69 0.00 88 1010.1
20260507031414 44 75 0.9 4.3 0.00 0.69 0.00 88 1010.1
20260507031214 44 105 0.9 4.3 0.00 0.70 0.00 88 1010.1
20260507031013 44 39 1.7 7.0 0.00 0.71 0.00 88 1010.1
20260507030813 45 53 1.7 7.0 0.00 0.72 0.00 88 1010.1
20260507030614 44 304 1.7 7.0 0.00 0.73 0.00 88 1010.1
20260507030414 44 49 2.6 7.0 0.00 0.74 0.00 88 1010.1
20260507030214 44 45 2.6 7.0 0.00 0.75 0.00 88 1010.1
20260507030013 44 75 2.6 6.1 0.00 0.76 0.00 88 1010.0
20260507025814 44 44 2.6 6.1 0.00 0.76 0.00 88 1010.0
20260507025614 44 60 2.6 7.8 0.00 0.77 0.00 88 1010.0
20260507025413 45 36 2.6 7.8 0.00 0.77 0.00 88 1010.0
20260507025214 45 70 1.7 7.8 0.00 0.78 0.00 88 1009.9
20260507025013 45 49 1.7 7.8 0.00 0.79 0.00 88 1009.9
20260507024814 45 55 1.7 7.8 0.00 0.79 0.00 88 1010.0
20260507024613 45 79 1.7 4.3 0.00 0.80 0.00 88 1009.9
20260507024413 45 32 1.7 4.3 0.00 0.80 0.00 88 1009.9
20260507024213 45 5 1.7 4.3 0.00 0.80 0.00 88 1010.0
20260507024013 45 5 1.7 4.3 0.00 0.81 0.00 88 1009.9
20260507023814 45 49 1.7 4.3 0.00 0.82 0.00 88 1009.9
20260507023614 45 0 1.7 4.3 0.00 0.82 0.00 88 1009.9
20260507023413 45 346 1.7 4.3 0.00 0.83 0.00 87 1010.0
20260507023214 45 57 1.7 4.3 0.00 0.83 0.00 87 1009.9
20260507023013 45 89 1.7 4.3 0.00 0.83 0.00 87 1009.9
20260507022814 45 62 2.6 10.4 0.00 0.84 0.00 87 1009.9
20260507022613 45 59 2.6 10.4 0.00 0.84 0.00 87 1009.9
20260507022414 45 59 2.6 10.4 0.00 0.85 0.00 87 1009.9
20260507022214 45 49 2.6 10.4 0.00 0.85 0.00 87 1010.0
20260507022013 45 18 2.6 10.4 0.00 0.86 0.00 87 1009.9
20260507021816 45 301 2.6 7.8 0.00 0.86 0.00 87 1009.9
20260507021616 45 333 2.6 7.8 0.00 0.87 0.00 87 1010.0
20260507021416 45 355 2.6 7.0 0.00 0.87 0.00 87 1010.0
20260507021216 45 61 2.6 7.0 0.00 0.87 0.00 87 1009.9
20260507021016 45 42 2.6 7.0 0.00 0.87 0.00 87 1009.9
20260507020817 45 49 1.7 6.1 0.00 0.87 0.00 87 1009.9
20260507020615 45 28 1.7 4.3 0.00 0.88 0.00 88 1009.9
20260507020426 45 15 1.7 5.2 0.00 0.88 0.00 88 1009.8
20260507020212 45 56 1.7 5.2 0.00 0.88 0.00 88 1009.9
20260507020011 45 0 1.7 5.2 0.00 0.89 0.00 88 1009.8
20260507015809 45 30 1.7 5.2 0.00 0.89 0.00 88 1009.9
20260507015607 45 44 1.7 5.2 0.00 0.90 0.00 88 1009.9
20260507015404 45 28 1.7 4.3 0.00 0.90 0.00 88 1009.9
20260507015204 45 35 0.9 4.3 0.00 0.91 0.00 88 1009.9
20260507015004 45 42 1.7 4.3 0.00 0.91 0.00 88 1009.9
20260507014803 45 42 1.7 4.3 0.00 0.91 0.00 88 1009.9
20260507014602 45 54 1.7 4.3 0.00 0.91 0.00 88 1010.0
20260507014413 45 54 1.7 4.3 0.00 0.91 0.00 88 1009.8
20260507014200 45 39 1.7 4.3 0.00 0.91 0.00 87 1009.8
20260507014000 45 15 1.7 4.3 0.00 0.91 0.00 88 1009.8
20260507013755 45 48 1.7 5.2 0.00 0.92 0.00 87 1009.7
20260507013555 45 51 1.7 5.2 0.00 0.92 0.00 87 1009.8
20260507013350 45 61 1.7 5.2 0.00 0.92 0.00 87 1009.7
20260507013150 45 56 1.7 7.0 0.00 0.92 0.00 87 1009.6
20260507012947 45 55 1.7 7.0 0.00 0.93 0.00 87 1009.6
20260507012751 45 301 1.7 7.0 0.00 0.93 0.00 87 1009.6
20260507012546 45 344 1.7 7.0 0.00 0.93 0.00 87 1009.7
20260507012345 45 355 1.7 7.0 0.00 0.93 0.00 87 1009.7
20260507012146 45 22 1.7 7.0 0.00 0.93 0.00 87 1009.7
20260507011946 44 5 1.7 7.0 0.00 0.94 0.00 87 1009.7
20260507011745 45 18 1.7 7.0 0.00 0.94 0.00 87 1009.7
20260507011539 45 5 1.7 7.0 0.00 0.94 0.00 87 1009.7
20260507011339 45 5 1.7 7.0 0.00 0.94 0.00 87 1009.7
20260507011137 45 29 1.7 7.0 0.00 0.94 0.00 87 1009.6
20260507010935 45 25 1.7 7.0 0.00 0.94 0.00 87 1009.6
20260507010735 45 9 1.7 7.0 0.00 0.94 0.00 87 1009.5
20260507010536 45 79 2.6 7.8 0.00 0.94 0.00 87 1009.5
20260507010333 44 88 2.6 7.8 0.00 0.94 0.00 87 1009.5
20260507010133 44 345 2.6 7.8 0.00 0.94 0.00 87 1009.4
20260507005935 44 82 2.6 7.8 0.00 0.94 0.00 88 1009.4
20260507005733 44 34 2.6 7.8 0.00 0.94 0.00 88 1009.4
20260507005532 44 47 1.7 5.2 0.00 0.94 0.00 88 1009.4
20260507005334 44 350 1.7 5.2 0.00 0.94 0.00 88 1009.4
20260507005133 44 55 1.7 5.2 0.00 0.94 0.00 87 1009.4
20260507004932 44 49 1.7 5.2 0.00 0.94 0.00 88 1009.3
20260507004731 44 41 1.7 5.2 0.00 0.94 0.00 88 1009.3
20260507004532 44 327 1.7 5.2 0.00 0.94 0.00 88 1009.3
20260507004331 44 50 1.7 7.0 0.00 0.95 0.00 88 1009.3
20260507004132 44 5 1.7 7.0 0.00 0.95 0.00 88 1009.3
20260507003928 44 5 1.7 7.0 0.00 0.95 0.00 88 1009.2
20260507003727 44 34 1.7 7.0 0.00 0.95 0.00 88 1009.2
20260507003527 44 37 1.7 7.0 0.00 0.95 0.00 88 1009.3
20260507003326 44 57 1.7 7.0 0.00 0.95 0.00 88 1009.2
20260507003123 44 63 1.7 7.0 0.00 0.95 0.00 88 1009.3
20260507002924 44 51 1.7 5.2 0.00 0.95 0.00 88 1009.2
20260507002723 44 93 1.7 8.7 0.00 0.95 0.00 88 1009.3
20260507002523 44 38 2.6 8.7 0.00 0.95 0.00 87 1009.3
20260507002322 44 26 1.7 8.7 0.00 0.95 0.00 87 1009.2
20260507002121 44 28 1.7 8.7 0.00 0.95 0.00 87 1009.3
20260507001922 44 30 1.7 8.7 0.00 0.95 0.00 88 1009.3
20260507001721 44 61 1.7 9.6 0.00 0.95 0.00 87 1009.2
20260507001522 44 325 1.7 9.6 0.00 0.95 0.00 88 1009.2
20260507001321 44 326 1.7 9.6 0.00 0.95 0.00 87 1009.3
20260507001121 44 69 1.7 9.6 0.00 0.95 0.00 87 1009.3
20260507000919 44 113 1.7 9.6 0.00 0.95 0.00 87 1009.3
20260507000720 44 63 1.7 7.0 0.00 0.95 0.00 87 1009.3
20260507000519 44 57 1.7 6.1 0.00 0.95 0.00 87 1009.3
20260507000317 44 41 1.7 7.0 0.00 0.95 0.00 87 1009.4
20260507000117 44 38 2.6 10.4 0.00 0.95 0.00 87 1009.3
20260506235915 44 66 2.6 10.4 0.00 0.95 0.00 87 1009.3
20260506235713 44 66 3.5 10.4 0.00 0.95 0.00 87 1009.4
20260506235514 44 74 3.5 10.4 0.00 0.95 0.00 87 1009.4
20260506235315 44 49 3.5 10.4 0.00 0.95 0.00 87 1009.4
20260506235114 44 57 3.5 10.4 0.00 0.95 0.00 87 1009.3
20260506234912 44 67 4.3 8.7 0.00 0.95 0.00 87 1009.2
20260506234706 44 5 4.3 8.7 0.00 0.95 0.00 87 1009.3
20260506234506 44 91 4.3 8.7 0.00 0.95 0.00 87 1009.2
20260506234305 44 50 3.5 8.7 0.00 0.95 0.00 87 1009.3
20260506234106 44 39 4.3 8.7 0.00 0.95 0.00 87 1009.3
20260506233906 44 21 3.5 8.7 0.00 0.95 0.00 87 1009.3
20260506233709 44 57 3.5 8.7 0.00 0.95 0.00 87 1009.4
20260506233504 44 30 3.5 9.6 0.00 0.95 0.00 87 1009.3
20260506233303 44 71 2.6 9.6 0.00 0.95 0.00 87 1009.4
20260506233104 44 71 2.6 9.6 0.00 0.95 0.00 87 1009.4
20260506232904 44 355 2.6 9.6 0.00 0.95 0.00 88 1009.4
20260506232705 44 53 2.6 10.4 0.00 0.95 0.00 87 1009.5
20260506232503 44 101 3.5 10.4 0.00 0.95 0.00 88 1009.4
20260506232306 44 34 3.5 10.4 0.00 0.95 0.00 87 1009.4
20260506232117 44 59 4.3 10.4 0.00 0.95 0.00 87 1009.4
20260506231904 44 38 4.3 10.4 0.00 0.95 0.00 87 1009.4
20260506231704 44 78 4.3 10.4 0.00 0.95 0.00 88 1009.4
20260506231503 44 53 4.3 13.0 0.00 0.95 0.00 88 1009.3
20260506231316 44 25 3.5 13.0 0.00 0.95 0.00 88 1009.3
20260506231104 44 42 3.5 13.0 0.00 0.95 0.00 88 1009.3
20260506230904 44 351 3.5 13.0 0.00 0.95 0.00 88 1009.3
20260506230703 45 74 3.5 13.0 0.00 0.95 0.00 88 1009.3
20260506230503 45 21 3.5 8.7 0.00 0.95 0.00 88 1009.3
20260506230304 45 11 3.5 8.7 0.00 0.95 0.00 88 1009.2
20260506230104 45 86 3.5 8.7 0.00 0.95 0.00 88 1009.2
20260506225904 45 42 3.5 9.6 0.00 0.95 0.00 88 1009.1
20260506225703 45 35 3.5 9.6 0.00 0.95 0.00 88 1009.1
20260506225504 45 33 3.5 9.6 0.00 0.95 0.00 88 1009.1
20260506225305 45 56 3.5 9.6 0.00 0.95 0.00 88 1009.1
20260506225103 45 5 3.5 9.6 0.00 0.95 0.00 88 1009.1
20260506224903 45 86 3.5 9.6 0.00 0.95 0.00 88 1009.1
20260506224704 45 323 3.5 9.6 0.00 0.95 0.00 88 1009.1
20260506224504 45 32 2.6 9.6 0.00 0.95 0.00 88 1009.1
20260506224304 45 30 2.6 9.6 0.00 0.95 0.00 88 1009.1
20260506224103 45 74 2.6 9.6 0.00 0.95 0.00 88 1009.0
20260506223903 45 17 2.6 9.6 0.00 0.95 0.00 88 1009.0
20260506223704 45 5 2.6 7.0 0.00 0.95 0.00 88 1008.9
20260506223504 46 79 2.6 7.8 0.00 0.95 0.00 88 1008.8
20260506223303 46 57 3.5 7.8 0.00 0.95 0.00 89 1008.9
20260506223103 46 23 3.5 8.7 0.00 0.95 0.00 89 1008.9
20260506222904 46 69 2.6 8.7 0.00 0.95 0.00 89 1008.9
20260506222703 46 355 2.6 8.7 0.00 0.95 0.00 88 1008.9
20260506222517 46 25 2.6 8.7 0.00 0.95 0.00 88 1008.9
20260506222306 46 72 2.6 8.7 0.00 0.95 0.00 88 1008.9
20260506222104 46 69 2.6 7.0 0.00 0.95 0.00 88 1008.8
20260506221904 46 323 2.6 8.7 0.00 0.95 0.00 88 1008.9
20260506221703 46 51 2.6 8.7 0.00 0.95 0.00 88 1008.9
20260506221502 46 17 2.6 8.7 0.00 0.95 0.00 88 1009.0
20260506221301 46 9 2.6 8.7 0.00 0.95 0.00 88 1008.9
20260506221101 46 0 2.6 8.7 0.00 0.95 0.00 88 1008.9
20260506220901 47 34 2.6 8.7 0.00 0.95 0.00 88 1009.1
20260506220701 47 10 2.6 8.7 0.00 0.95 0.00 88 1008.9
20260506220501 47 40 2.6 8.7 0.00 0.95 0.00 88 1008.9
20260506220301 47 350 2.6 8.7 0.00 0.95 0.00 88 1008.9
20260506220109 47 36 2.6 8.7 0.00 0.95 0.00 88 1008.9
20260506215859 47 325 2.6 8.7 0.00 0.95 0.95 88 1008.9
20260506215700 47 63 2.6 8.7 0.00 0.95 0.95 88 1008.9
20260506215459 47 342 3.5 8.7 0.00 0.95 0.95 88 1008.9
20260506215300 47 71 3.5 8.7 0.00 0.95 0.95 88 1009.0
20260506215059 47 28 2.6 10.4 0.00 0.95 0.95 88 1008.9
20260506214900 47 76 2.6 10.4 0.00 0.95 0.95 88 1008.8
20260506214659 47 13 2.6 10.4 0.00 0.95 0.95 88 1008.8
20260506214459 48 74 2.6 10.4 0.00 0.95 0.95 88 1008.8
20260506214300 48 84 2.6 10.4 0.00 0.95 0.95 88 1008.7
20260506214100 48 346 2.6 7.8 0.00 0.95 0.95 88 1008.8
20260506213900 48 42 2.6 7.8 0.00 0.95 0.95 88 1008.8
20260506213659 48 58 3.5 7.8 0.00 0.95 0.95 88 1008.8
20260506213459 48 46 2.6 8.7 0.00 0.95 0.95 88 1008.7
20260506213300 48 58 3.5 8.7 0.00 0.95 0.95 88 1008.7
20260506213059 49 52 3.5 9.6 0.00 0.95 0.95 88 1008.6
20260506212900 49 355 3.5 9.6 0.00 0.95 0.95 88 1008.7
20260506212659 49 24 3.5 9.6 0.00 0.95 0.95 88 1008.7
20260506212459 49 72 3.5 9.6 0.00 0.95 0.95 88 1008.8
20260506212300 49 24 2.6 9.6 0.00 0.95 0.95 88 1008.8
20260506212100 49 34 2.6 7.8 0.00 0.95 0.95 88 1008.6
20260506211859 49 46 1.7 7.8 0.00 0.95 0.95 88 1008.6
20260506211700 49 19 1.7 7.0 0.00 0.95 0.95 88 1008.6
20260506211455 49 355 1.7 8.7 0.00 0.95 0.95 89 1008.6
20260506211255 49 38 2.6 8.7 0.00 0.95 0.95 89 1008.6
20260506211056 49 61 2.6 8.7 0.00 0.95 0.95 89 1008.6
20260506210853 49 5 2.6 8.7 0.00 0.95 0.95 89 1008.5
20260506210652 49 80 1.7 8.7 0.00 0.95 0.95 89 1008.5
20260506210452 49 54 1.7 7.0 0.00 0.95 0.95 89 1008.5
20260506210251 49 272 1.7 7.0 0.00 0.95 0.95 89 1008.6
20260506210051 49 347 1.7 7.0 0.00 0.95 0.95 89 1008.5
20260506205852 49 13 1.7 7.0 0.00 0.95 0.95 89 1008.4
20260506205652 49 340 1.7 7.0 0.00 0.95 0.95 89 1008.5
20260506205451 49 20 1.7 7.0 0.00 0.95 0.95 89 1008.5
20260506205251 49 61 1.7 7.0 0.00 0.95 0.95 90 1008.4
20260506205052 49 0 1.7 7.0 0.00 0.95 0.95 90 1008.4
20260506204851 49 355 1.7 7.0 0.00 0.95 0.95 90 1008.3
20260506204652 49 350 1.7 7.0 0.00 0.95 0.95 89 1008.3
20260506204450 49 15 0.9 7.0 0.00 0.95 0.95 89 1008.4
20260506204247 49 9 0.9 7.0 0.00 0.95 0.95 89 1008.4
20260506204048 50 33 0.9 4.3 0.00 0.95 0.95 90 1008.4
20260506203846 50 42 0.9 4.3 0.00 0.95 0.95 90 1008.3
20260506203645 50 45 1.7 7.0 0.00 0.95 0.95 90 1008.3
20260506203445 50 52 1.7 7.0 0.00 0.95 0.95 89 1008.3
20260506203245 50 52 1.7 7.0 0.00 0.95 0.95 89 1008.3
20260506203046 50 16 1.7 7.0 0.00 0.95 0.95 90 1008.4
20260506202846 50 65 1.7 7.0 0.00 0.95 0.95 89 1008.3
20260506202645 50 53 1.7 6.1 0.00 0.95 0.95 90 1008.4
20260506202445 50 15 1.7 3.5 0.00 0.95 0.95 90 1008.5
20260506202243 50 11 1.7 3.5 0.00 0.95 0.95 90 1008.4
20260506202042 50 342 1.7 3.5 0.00 0.95 0.95 90 1008.3
20260506201842 50 40 1.7 3.5 0.00 0.95 0.95 90 1008.4
20260506201641 50 32 1.7 3.5 0.00 0.95 0.95 90 1008.4
20260506201441 50 28 1.7 3.5 0.00 0.95 0.95 90 1008.4
20260506201241 50 31 1.7 3.5 0.00 0.95 0.95 90 1008.3
20260506201039 50 30 1.7 7.0 0.00 0.95 0.95 90 1008.3
20260506200840 50 30 1.7 7.0 0.00 0.95 0.95 90 1008.3
20260506200638 50 12 1.7 7.0 0.00 0.95 0.95 90 1008.2
20260506200435 50 355 1.7 7.0 0.00 0.95 0.95 90 1008.2
20260506200236 50 15 1.7 7.0 0.00 0.95 0.95 90 1008.1
20260506200033 50 50 1.7 5.2 0.00 0.95 0.95 90 1008.1
20260506195832 50 5 1.7 5.2 0.00 0.95 0.95 90 1007.9
20260506195631 50 11 1.7 4.3 0.00 0.95 0.95 91 1008.0
20260506195432 50 5 1.7 4.3 0.00 0.95 0.95 90 1007.9
20260506195232 50 49 0.9 4.3 0.00 0.95 0.95 90 1007.9
20260506195032 50 44 0.9 3.5 0.00 0.95 0.95 91 1007.9
20260506194831 50 81 0.9 3.5 0.00 0.95 0.95 91 1008.0
20260506194632 50 27 0.9 3.5 0.00 0.95 0.95 91 1008.0
20260506194432 50 24 1.7 3.5 0.00 0.95 0.95 90 1007.9
20260506194231 50 23 1.7 3.5 0.00 0.95 0.95 90 1008.0
20260506194031 50 44 0.9 3.5 0.00 0.95 0.95 90 1007.9
20260506193832 50 48 0.9 3.5 0.00 0.95 0.95 90 1007.9
20260506193632 50 37 0.9 3.5 0.00 0.95 0.95 90 1007.9
20260506193432 50 17 0.0 3.5 0.00 0.95 0.95 90 1007.9
20260506193232 50 57 0.0 2.6 0.00 0.95 0.95 90 1007.9
20260506193031 50 60 0.9 3.5 0.00 0.95 0.95 90 1008.0
20260506192830 50 60 0.9 3.5 0.00 0.95 0.95 90 1008.0
20260506192629 50 60 0.9 3.5 0.00 0.95 0.95 90 1007.9
20260506192429 50 60 0.9 3.5 0.00 0.95 0.95 90 1007.9
20260506192229 50 61 0.9 3.5 0.00 0.95 0.95 90 1007.9
20260506192029 50 10 0.9 5.2 0.00 0.95 0.95 90 1007.9
20260506191829 50 44 1.7 5.2 0.00 0.95 0.95 90 1007.8
20260506191627 50 40 1.7 6.1 0.00 0.95 0.95 90 1007.7
20260506191427 50 56 1.7 7.8 0.00 0.95 0.95 90 1007.7
20260506191225 50 57 2.6 7.8 0.00 0.95 0.95 90 1007.7
20260506191023 50 5 2.6 7.8 0.00 0.95 0.95 90 1007.7
20260506190824 50 355 2.6 7.8 0.00 0.95 0.95 90 1007.6
20260506190624 50 24 2.6 7.8 0.00 0.95 0.95 90 1007.5
20260506190424 50 25 2.6 7.8 0.00 0.95 0.95 90 1007.6
20260506190223 50 29 2.6 7.8 0.00 0.95 0.95 90 1007.4
20260506190023 50 28 2.6 7.8 0.00 0.95 0.95 90 1007.5
20260506185823 50 55 2.6 8.7 0.00 0.95 0.95 90 1007.4
20260506185623 50 90 2.6 8.7 0.00 0.95 0.95 90 1007.5
20260506185423 50 13 1.7 8.7 0.00 0.95 0.95 90 1007.5
20260506185221 50 40 1.7 8.7 0.00 0.95 0.95 90 1007.4
20260506185019 50 23 1.7 8.7 0.00 0.95 0.95 90 1007.5
20260506184820 50 34 1.7 4.3 0.00 0.95 0.95 90 1007.5
20260506184619 50 28 1.7 4.3 0.00 0.95 0.95 90 1007.5
20260506184417 50 15 1.7 4.3 0.00 0.95 0.95 90 1007.5
20260506184216 50 78 1.7 4.3 0.00 0.95 0.95 90 1007.6
20260506184016 50 347 1.7 4.3 0.00 0.95 0.95 90 1007.5
20260506183813 50 56 1.7 4.3 0.00 0.95 0.95 90 1007.5
20260506183611 50 21 1.7 7.0 0.00 0.95 0.95 90 1007.5
20260506183411 50 59 1.7 7.0 0.00 0.95 0.95 90 1007.4
20260506183211 50 341 1.7 7.0 0.00 0.95 0.95 90 1007.3
20260506183011 50 15 2.6 7.0 0.00 0.95 0.95 89 1007.3
20260506182806 51 54 1.7 7.0 0.00 0.95 0.95 89 1007.3
20260506182606 51 57 1.7 5.2 0.00 0.95 0.95 89 1007.3
20260506182406 51 16 1.7 5.2 0.00 0.95 0.95 89 1007.3
20260506182205 51 0 1.7 6.1 0.00 0.95 0.95 89 1007.3
20260506182017 51 330 1.7 6.1 0.00 0.95 0.95 89 1007.2
20260506181805 51 55 1.7 6.1 0.00 0.95 0.95 89 1007.2
20260506181605 51 355 1.7 6.1 0.00 0.95 0.95 89 1007.2
20260506181405 51 57 1.7 6.1 0.00 0.95 0.95 89 1007.2
20260506181206 51 355 1.7 6.1 0.00 0.95 0.95 90 1007.2
20260506181006 51 0 1.7 6.1 0.00 0.95 0.95 90 1007.2
20260506180806 51 355 2.6 6.1 0.00 0.95 0.95 90 1007.2
20260506180605 51 19 2.6 7.0 0.00 0.95 0.95 89 1007.1
20260506180405 51 44 2.6 7.0 0.00 0.95 0.95 89 1007.2
20260506180206 51 25 2.6 7.0 0.00 0.95 0.95 89 1007.1
20260506180006 51 341 2.6 7.0 0.00 0.95 0.95 89 1007.0
20260506175805 51 10 2.6 7.8 0.00 0.95 0.95 90 1007.1
20260506175604 51 48 2.6 7.8 0.00 0.95 0.95 90 1007.0
20260506175405 51 26 2.6 7.8 0.00 0.95 0.95 89 1007.0
20260506175205 51 34 2.6 7.8 0.00 0.95 0.95 90 1007.1
20260506175005 51 42 2.6 7.8 0.00 0.95 0.95 90 1007.1
20260506174805 51 19 2.6 6.1 0.00 0.95 0.95 90 1007.0
20260506174604 51 82 2.6 6.1 0.00 0.95 0.95 90 1007.1
20260506174405 51 88 2.6 6.1 0.00 0.95 0.95 90 1007.1
20260506174205 51 49 1.7 6.1 0.00 0.95 0.95 90 1007.0
20260506174004 51 78 1.7 6.1 0.00 0.95 0.95 90 1007.1
20260506173805 51 65 1.7 6.1 0.00 0.95 0.95 90 1007.1
20260506173606 51 322 1.7 4.3 0.00 0.95 0.95 90 1007.0
20260506173405 51 9 1.7 4.3 0.00 0.95 0.95 90 1007.0
20260506173204 51 25 2.6 4.3 0.00 0.95 0.95 90 1007.0
20260506173003 51 43 2.6 7.0 0.00 0.95 0.95 90 1007.0
20260506172803 51 48 2.6 7.0 0.00 0.95 0.95 90 1007.1
20260506172602 51 17 1.7 7.0 0.00 0.95 0.95 90 1007.1
20260506172402 51 50 1.7 7.0 0.00 0.95 0.95 90 1007.1